Flag for Germany Weather past 2 weeks in Oberhausen, North Rhine-Westphalia, Germany

Now
66 °F

Clear.


Feels Like: 66 °F
Forecast: 62 / 71 °F
Wind: 9 mph from Northeast

Location: Duesseldorf

Current Time: Jul 24, 2014 at 4:43:09 AM

Latest Report: Jul 24, 2014 at 4:20 AM


Visibility: 10 mi

Pressure: 29.98 "Hg

Humidity: 68%

Dew point: 55 °F

Location of OberhausenLocation

Historic Weather in Oberhausen — Graph

°F

Oberhausen temperature yesterday

Maximum temperature yesterday: 82 °F (at 3:20 PM)
Minimum temperature yesterday: 64 °F (at 2:20 AM)
Average temperature yesterday: 75 °F

Past Weeks' High & Low Weather Summary

 TemperatureHumidityPressure
High93 °F (Jul 19, 3:50 PM)100% (Jul 9, 6:50 AM)30.18 "Hg (Jul 9, 6:50 AM)
Low54 °F (Jul 9, 6:50 AM)23% (Jul 19, 4:50 PM)29.65 "Hg (Jul 9, 3:50 PM)
Average70 °F73%29.95 "Hg
* Reported Jul 9 2:20 AM — Jul 24 2:50 AM, Oberhausen, Weather by CustomWeather, © 2014

Note: Actual official high and low records may vary slightly from our data, if they occured in-between our weather recording intervals... More about our weather records

Advertising

Oberhausen weather history for previous 24 hours

 ConditionsComfort  
Time TempWeatherWind HumidityBarometerVisibility
2:50 AM
Jul 24
66 °FClear.8 mph73%29.98 "Hg10 mi
2:20 AM68 °FClear.8 mph69%30.01 "Hg10 mi
1:50 AM66 °FClear.6 mph73%30.01 "Hg10 mi
1:20 AM68 °FClear.5 mph73%30.01 "Hg10 mi
12:50 AM68 °FClear.5 mph69%30.01 "Hg10 mi
12:20 AM72 °FClear.7 mph61%30.01 "Hg10 mi
11:50 PM
Jul 23
70 °FClear.5 mph69%30.01 "Hg10 mi
11:20 PM72 °FClear.7 mph65%30.01 "Hg10 mi
10:50 PM72 °FClear.5 mph65%30.01 "Hg10 mi
10:20 PM73 °FSunny.7 mph61%30.01 "Hg10 mi
9:50 PM75 °FSunny.8 mph57%30.01 "Hg10 mi
9:20 PM77 °FPassing clouds.8 mph54%30.01 "HgN/A
8:50 PM79 °FPassing clouds.8 mph51%30.01 "HgN/A
8:20 PM81 °FPassing clouds.8 mph48%29.98 "HgN/A
7:50 PM81 °FPassing clouds.10 mph45%29.98 "HgN/A
7:20 PM82 °FSunny.12 mph42%29.98 "Hg10 mi
6:50 PM82 °FSunny.12 mph45%29.98 "Hg10 mi
6:20 PM82 °FSunny.14 mph42%29.98 "Hg10 mi
5:50 PM82 °FPassing clouds.12 mph45%29.98 "HgN/A
5:20 PM82 °FPassing clouds.13 mph45%30.01 "HgN/A
4:50 PM82 °FPassing clouds.15 mph45%30.01 "HgN/A
4:20 PM82 °FPassing clouds.16 mph45%30.04 "HgN/A
3:50 PM82 °FPassing clouds.15 mph45%30.01 "HgN/A
3:20 PM82 °FPassing clouds.14 mph48%30.01 "HgN/A
1:50 PM81 °FPassing clouds.14 mph51%30.04 "HgN/A
1:20 PM81 °FPassing clouds.13 mph51%30.07 "HgN/A
12:50 PM79 °FPassing clouds.14 mph54%30.07 "HgN/A
12:20 PM79 °FSunny.13 mph58%30.07 "Hg10 mi
11:50 AM77 °FSunny.10 mph61%30.07 "Hg10 mi
11:20 AM77 °FSunny.10 mph57%30.07 "Hg10 mi
7:20 AM70 °FSunny.7 mph73%30.09 "Hg10 mi
6:50 AM68 °FSunny.6 mph78%30.07 "Hg10 mi
6:20 AM68 °FClear.6 mph83%30.07 "Hg10 mi
5:50 AM68 °FClear.8 mph83%30.07 "Hg10 mi
5:20 AM66 °FClear.7 mph88%30.07 "Hg10 mi
4:50 AM64 °FClear.6 mph88%30.07 "Hg10 mi
4:20 AM64 °FClear.7 mph88%30.07 "Hg10 mi
Weather by CustomWeather, © 2014

See weather overviewHow to use our weather pages